Location: City of Moscow
(46.7306°N, 116.9989°W)
Time: 02:05:25
(UTC+00:00)

Cosmos 2322 - Pass Details

Date: 11 December 2025
Orbit: 840 x 853 km, 71.0° (Epoch: 14 January)

Event Time Altitude Azimuth Distance (km) Brightness Sun altitude
Exits shadow 14:38:17 - 333° (NNW) 3,188 6.2 -7.5°
Reaches altitude 10° 14:40:09 10° 333° (NNW) 2,470 5.7 -7.2°
Maximum altitude 14:45:51 89° 246° (WSW) 851 3.8 -6.3°
Drops below altitude 10° 14:51:31 10° 156° (SSE) 2,461 7.0 -5.5°
Sets 14:53:57 0° 156° (SSE) 3,395 7.8 -5.1°
